ARIANE 5 R/B, 44477

Orbit data source: Space-Track

ARIANE 5 R/B, 44477 is space debris in HEO originally from a launch on Tue, 06 Aug 2019 UTC launched from the French Guiana (FRGUI). Debris objects in space refer to the collection of defunct objects orbiting the Earth. Examples of debris include non-operational satellites, rocket bodies, and fragments generated from explosions, collisions, or faulty payload assembly.

Loading next visibility...
Identifier
44477, 2019-049C
Orbit
HEO
Country
Flag of FRFR
Related business
Manufacturer
ArianeGroup
Mission
Spacecraft
Bus & Motor
ESC-A, Unknown motor
Mass
~5,000 kg wet, ~5,000 kg dry
Launch date (UTC)
2019-08-06 (6 years ago)
Launch vehicle
Unknown
Launch site
French Guiana (FRGUI)
Object type
Payload
Rocket body
Debris
Shape & HBR
Cyl + 1 Nozzle, 3.5 m
Radar Cross Section
41.627 m², Large (>1 m²)

Expand to show TLE details & history
Last TLE update: 7 hours ago

TLE from 7 hours ago
0 ARIANE 5 R/B
1 44477U 19049C   25308.39616286  .00016838  00000-0  99981-3 0  9993
2 44477   4.5682  36.6291 6752107 239.4993  37.5487  3.00985441 59043
Epoch: 2025-11-04T09:30Z
TLE epoch observation values (Epoch: 2025-11-04T09:30:28.471Z)
Latitude
0.00001°
Longitude
-150.16718°
Altitude
10,346.241 km
Speed
5.291 km/s
True Right ascension
02h 25m 20s
True Declination
0° 00' 00"
Sunlit
Object was in full shadow at epoch
Visualization orbit readout
Latitude
Unknown
Longitude
Unknown
Altitude
Unknown
Speed
Unknown
Apparent Right ascension
Unknown
Apparent Declination
Unknown
Sunlit
N/A
Visualization observer readout
Local Sidereal Time
12:56:04
Azimuth
Unknown
Elevation
Unknown
Doppler factor
Unknown
Orbital elements
Apogee altitude
27,575.752 km
Perigee altitude
204.832 km
Semi-major axis
20,268.429 km
Eccentricity
0.67521
Inclination
4.5682°
RAAN
36.6291°
Arg. of periapsis
239.4993°
True anomaly
120.21293°
Mean anomaly
37.5487°
Eccentric anomaly
74.8996°
Mean motion
0.75216 °/min
Orbital period
478.62 mins
BSTAR
0.00099981
Loading maneuver chart data...
Computing Atmospheric mass density...
Loading historical data...
Loading historical data...
Loading historical data...
Loading historical data...
Loading historical data...
Loading historical data...
Loading historical data...
Other satellites on launch #49 in the year 2019 (2019-08-06 UTC)

Documentation

Showing up to 5 results
|